Tracking 31027 objects as of 19-Jul-2025
HD Live streaming from Space Station
objects crossing your sky now

QIANFAN-65

Track QIANFAN-65 now!
10-day predictions
QIANFAN-65 is classified as:


NORAD ID: 62795
Int'l Code: 2025-016L
Perigee: 1,063.9 km
Apogee: 1,087.9 km
Inclination: 89.0 °
Period: 106.6 minutes
Semi major axis: 7446 km
RCS: Unknown
Launch date: January 23, 2025
Source: People's Republic of China (PRC)
Launch site: Taiyaun Space Center, China (TSC)
Your satellite tracking list
IRIDIUM 106
Track 1 satellite(s)




NASA's NSSDC Master Catalog

Two Line Element Set (TLE):
1 62795U 25016L   25199.85985026  .00000115  00000-0  15905-3 0  9992
2 62795  88.9845 118.2236 0016118  51.7095 308.5503 13.50956620 27415
Source of the keplerian elements: AFSPC